Regional Weather Roundup
Issued by NWS

Home | Current Version | Previous Version | Text Only | Print | Product List | Glossary Off
Versions: 1 2 3 4 5 6 7 8 9 10 11 12 13 14 15 16 17 18 19 20 21 22 23 24 25 26 27 28 29 30 31 32 33 34 35 36 37 38 39 40 41 42 43 44 45 46 47 48 49 50

000
ASUS43 KFSD 221502
RWRSD

WEATHER ROUNDUP FOR SOUTH DAKOTA
NATIONAL WEATHER SERVICE SIOUX FALLS SD
1000 AM CDT SAT JUL 22 2017

NOTE: "FAIR" INDICATES FEW OR NO CLOUDS BELOW 12,000 FEET WITH NO
SIGNIFICANT WEATHER AND/OR OBSTRUCTIONS TO VISIBILITY.


SDZ001>005-009-010-012>017-221600-
NORTHWEST AND NORTH CENTRAL SOUTH DAKOTA

CITY           SKY/WX    TMP DP  RH WIND       PRES   REMARKS
BUFFALO          N/A     73  49  42 NW10      30.03R
FAITH            N/A     77  56  48 NW7       30.03S
MOBRIDGE       SUNNY     76  66  71 N12       29.95R
$$

SDZ012>016-024>037-041>051-057-063-072>074-221600-
SOUTHWEST AND SOUTH CENTRAL SOUTH DAKOTA

CITY           SKY/WX    TMP DP  RH WIND       PRES   REMARKS
RAPID CTY ARPT MOSUNNY   77  42  28 N12       30.06R
PIERRE         MOSUNNY   78  61  55 W6        29.95R
CUSTER         CLOUDY    76  35  22 E10       30.20S
ELLSWORTH AFB  CLOUDY    75  41  29 N12       30.06R
PHILIP         CLOUDY    81  47  30 N15       29.98F
PINE RIDGE     PTSUNNY   78  61  55 SE6       30.05R
SPEARFISH      FAIR      73  37  27 W6        30.14R
WINNER         FAIR      82  69  64 N8        29.98R
$$

SDZ004>011-016>023-039-040-221600-
NORTHEAST SOUTH DAKOTA

CITY           SKY/WX    TMP DP  RH WIND       PRES   REMARKS
ABERDEEN       SUNNY     77  67  71 NW6       29.91S
WATERTOWN      MOSUNNY   74  68  81 VRB3      29.91S
BROOKINGS      SUNNY     74  67  78 NW5       29.92F
SISSETON         N/A     74  70  87 S8        29.88S
$$

SDZ017-020-022-023-036>040-048>070-221600-
SOUTHEAST SOUTH DAKOTA

CITY           SKY/WX    TMP DP  RH WIND       PRES   REMARKS
SIOUX FALLS    CLOUDY    77  71  82 N8        29.92R
HURON          MOSUNNY   76  70  82 N8        29.91R
CHAMBERLAIN    MOSUNNY   79  70  74 NW7       29.95S
MITCHELL       MOSUNNY   77  72  84 NW5       29.92R
YANKTON        MOSUNNY   78  71  79 W5        29.91R
$$

ABBREVIATIONS USED IN REMARKS
   TC - TEMPERATURE IN CELSIUS
  WCI - WIND CHILL INDEX
   HX - HEAT INDEX
  VSB - VISIBILITY




USA.gov is the U.S. government's official web portal to all federal, state and local government web resources and services.